Content
SEND FEEDBACK

United States of America Flag

ROCK HILL, NEW YORK


Home > North America > United States > New York
Elevation: 1260 feet     Latitude: 41 35N     Longitude: 074 37W

WEATHER
 
SELECT A DAY
Number of Records: 486,128;   Date Range: 1/1/95 - 3/22/16
 
SHARE

PRINT THIS DATA

[ ← Previous Day ]
WEATHER ALMANAC - MAY 12, 2014
[ Next Day → ]
[ °C ]   °F
Weather ElementAverageHighLow
Temperature62.9 °F77 °F (12:15 pm)44.6 °F (4:35 am)
Dewpoint46.2 °F55.4 °F (7:15 pm)35.6 °F (2:35 am)
Humidity57.3 %81 % (4:35 am)28 % (12:55 pm)
Barometer30.13 in30.16 in (8:15 am)30.08 in (4:55 pm)
Wind Speed3.7 mph10.4 mph (1:15 pm)
Weather ElementAverage
Visibility10 mi
Wind DirectionSSE (163.2 °)

Weather ElementTotal
Precipitation---
Heating Degree Days4.2 (Base 65)
Growing Degree Days10.8 (Base 50)
Averaged from 69 records on May 12, 2014
WEATHER CONDITIONS BREAKOUT
WIND DIRECTION BREAKOUT
WEATHER BY HOUR - MAY 12, 2014
[ °C ]   °F
Local TimeTemperatureDewpointHumidityBarometerVisibilityWind DirectionWind SpeedGust SpeedPrecipitationEventsConditions
12:35 AM48.2 °F39.2 °F71 %30.13 in10.0 miNorth (10°)3.5 mphClear
12:55 AM50.0 °F39.2 °F66 %30.13 in10.0 miNorth (10°)3.5 mphClear
1:15 AM48.2 °F39.2 °F71 %30.13 in10.0 miNNE (20°)3.5 mphClear
1:35 AM48.2 °F39.2 °F71 %30.12 in10.0 miNNE (30°)5.8 mphClear
1:55 AM48.2 °F39.2 °F71 %30.13 in10.0 miNNE (20°)4.6 mphClear
2:15 AM48.2 °F39.2 °F71 %30.12 in10.0 miCalmClear
2:35 AM48.2 °F35.6 °F62 %30.12 in10.0 miNNE (20°)3.5 mphClear
2:55 AM46.4 °F39.2 °F76 %30.13 in10.0 miNorth (360°)3.5 mphClear
3:15 AM46.4 °F39.2 °F76 %30.14 in10.0 miNorth (360°)3.5 mphClear
3:35 AM48.2 °F39.2 °F71 %30.14 in10.0 miCalmClear
3:55 AM48.2 °F37.4 °F66 %30.14 in10.0 miCalmClear
4:15 AM46.4 °F37.4 °F71 %30.14 in10.0 miNorth (360°)3.5 mphClear
4:35 AM44.6 °F39.2 °F81 %30.13 in10.0 miNNE (20°)3.5 mphClear
4:55 AM46.4 °F39.2 °F76 %30.12 in10.0 miNorth (10°)4.6 mphClear
5:15 AM46.4 °F39.2 °F76 %30.13 in10.0 miCalmClear
5:35 AM46.4 °F39.2 °F76 %30.14 in10.0 miCalmClear
5:55 AM46.4 °F39.2 °F76 %30.14 in10.0 miCalmClear
6:15 AM44.6 °F39.2 °F81 %30.15 in10.0 miCalmClear
6:35 AM46.4 °F39.2 °F76 %30.14 in10.0 miCalmClear
6:55 AM46.4 °F39.2 °F76 %30.15 in10.0 miNNW (330°)3.5 mphClear
7:15 AM46.4 °F41.0 °F81 %30.15 in10.0 miWNW (290°)3.5 mphClear
7:35 AM51.8 °F42.8 °F71 %30.15 in10.0 miCalmClear
7:55 AM53.6 °F41.0 °F62 %30.15 in10.0 miCalmClear
8:15 AM55.4 °F41.0 °F58 %30.16 in10.0 miCalmClear
8:35 AM57.2 °F44.6 °F63 %30.16 in10.0 miCalmClear
8:55 AM60.8 °F44.6 °F55 %30.16 in10.0 miCalmClear
9:15 AM64.4 °F44.6 °F49 %30.16 in10.0 miWNW (290°)4.6 mphClear
9:35 AM66.2 °F44.6 °F46 %30.16 in10.0 miWest (270°)5.8 mphClear
10:15 AM69.8 °F42.8 °F38 %30.16 in10.0 miWSW (250°)5.8 mphClear
10:35 AM71.6 °F44.6 °F38 %30.16 in10.0 miWest (280°)3.5 mphClear
10:55 AM71.6 °F44.6 °F38 %30.15 in10.0 miCalmClear
11:15 AM73.4 °F42.8 °F33 %30.15 in10.0 miNorthClear
11:35 AM75.2 °F42.8 °F31 %30.15 in10.0 miWest (280°)4.6 mphClear
11:55 AM75.2 °F41.0 °F29 %30.15 in10.0 miNW (310°)5.8 mphClear
12:15 PM77.0 °F42.8 °F29 %30.15 in10.0 miWest (270°)5.8 mphClear
12:35 PM75.2 °F42.8 °F31 %30.13 in10.0 miNW (310°)3.5 mphClear
12:55 PM77.0 °F41.0 °F28 %30.13 in10.0 miWest (260°)9.2 mphMostly Cloudy
1:15 PM75.2 °F44.6 °F34 %30.13 in10.0 miWSW (240°)10.4 mphOvercast
1:35 PM75.2 °F44.6 °F34 %30.13 in10.0 miWest (260°)6.9 mphOvercast
1:55 PM75.2 °F46.4 °F36 %30.12 in10.0 miWest (260°)4.6 mphMostly Cloudy
2:15 PM75.2 °F46.4 °F36 %30.12 in10.0 miWNW (290°)9.2 mphMostly Cloudy
2:35 PM75.2 °F48.2 °F38 %30.12 in10.0 miWNW (290°)9.2 mphScattered Clouds
2:55 PM75.2 °F48.2 °F38 %30.11 in10.0 miWNW (300°)5.8 mphScattered Clouds
3:35 PM75.2 °F48.2 °F38 %30.10 in10.0 miCalmPartly Cloudy
3:55 PM75.2 °F51.8 °F44 %30.09 in10.0 miSW (230°)3.5 mphPartly Cloudy
4:15 PM75.2 °F51.8 °F44 %30.09 in10.0 miWNW (290°)3.5 mphMostly Cloudy
4:35 PM75.2 °F51.8 °F44 %30.09 in10.0 miWNW (290°)4.6 mphOvercast
4:55 PM75.2 °F51.8 °F44 %30.08 in10.0 miWNW (290°)4.6 mphMostly Cloudy
5:15 PM75.2 °F51.8 °F44 %30.09 in10.0 miWNW (290°)5.8 mphOvercast
5:35 PM73.4 °F51.8 °F47 %30.09 in10.0 miWest (280°)3.5 mphOvercast
5:55 PM73.4 °F51.8 °F47 %30.10 in10.0 miSW (220°)5.8 mphMostly Cloudy
6:15 PM71.6 °F53.6 °F53 %30.10 in10.0 miSW (230°)5.8 mphMostly Cloudy
6:35 PM71.6 °F53.6 °F53 %30.10 in10.0 miSSW (200°)8.1 mphMostly Cloudy
6:55 PM71.6 °F53.6 °F53 %30.10 in10.0 miSouth (170°)8.1 mphOvercast
7:15 PM69.8 °F55.4 °F60 %30.11 in10.0 miSSW (200°)8.1 mphOvercast
7:35 PM69.8 °F55.4 °F60 %30.11 in10.0 miSSW (210°)3.5 mphMostly Cloudy
7:55 PM69.8 °F55.4 °F60 %30.11 in10.0 miSSW (200°)3.5 mphMostly Cloudy
8:15 PM69.8 °F55.4 °F60 %30.10 in10.0 miSSW (210°)5.8 mphPartly Cloudy
8:35 PM69.8 °F55.4 °F60 %30.10 in10.0 miWSW (240°)4.6 mphScattered Clouds
8:55 PM68.0 °F55.4 °F64 %30.10 in10.0 miCalmMostly Cloudy
9:15 PM68.0 °F55.4 °F64 %30.11 in10.0 miCalmOvercast
9:35 PM66.2 °F55.4 °F68 %30.11 in10.0 miWest (280°)3.5 mphOvercast
9:55 PM66.2 °F55.4 °F68 %30.12 in10.0 miWNW (290°)4.6 mphOvercast
10:15 PM66.2 °F55.4 °F68 %30.12 in10.0 miWNW (290°)4.6 mphOvercast
10:35 PM66.2 °F55.4 °F68 %30.11 in10.0 miWest (280°)3.5 mphMostly Cloudy
10:55 PM66.2 °F55.4 °F68 %30.11 in10.0 miCalmPartly Cloudy
11:15 PM64.4 °F55.4 °F73 %30.12 in10.0 miWest (280°)4.6 mphMostly Cloudy
11:35 PM64.4 °F55.4 °F73 %30.12 in10.0 miWNW (290°)4.6 mphOvercast
11:55 PM64.4 °F55.4 °F73 %30.10 in10.0 miCalmOvercast
Hourly data recorded from KMSV, located miles away from Rock Hill, New York




STORIES FROM OUR PARTNERS